User: anonymous   Login
Location: Unspecified
(0.0000°N, 0.0000°E)
Time: 17:54:51
(UTC+01:00)
Language:

SWIFT - Orbit

View from above orbital plane
View from above orbital plane
View from above satellite
View from above satellite

Ground track
Ground track

The orbit data is extracted from the following two-line orbital elements,

1 28485U 04047A   14331.88459354  .00005255  00000-0  37651-3 0  8205
2 28485 020.5562 160.6676 0012387 004.3907 355.6633 15.00058050547792
Epoch (UTC): 27 November 2014 21:13:48
Eccentricity: 0.0012387
inclination: 20.5562°
perigee height: 558 km
apogee height: 575 km
right ascension of ascending node: 160.6676°
argument of perigee: 4.3907°
revolutions per day: 15.00058050
mean anomaly at epoch: 355.6633°
orbit number at epoch: 54779

The dashed part of the orbit path shows where the satellite is in the earth's shadow,  

DLR